Location: Rioux
(40.7500°S, 175.7500°E)
Time: 10:31:36
(UTC+00:00)

Tsikada Rocket - Pass Details

Date: 12 June 2024
Orbit: 958 x 1008 km, 82.9° (Epoch: 20 July)

Event Time Altitude Azimuth Distance (km) Brightness Sun altitude
Rises 18:50:46 0° 347° (NNW) 3,683 7.2 -8.9°
Reaches altitude 10° 18:53:18 10° 344° (NNW) 2,735 6.5 -8.5°
Maximum altitude 18:59:32 67° 261° (W) 1,061 4.0 -7.4°
Drops below altitude 10° 19:05:47 10° 178° (S) 2,736 6.1 -6.3°
Sets 19:08:20 0° 175° (S) 3,685 6.8 -5.9°
